Main page
Satellite images Climate Cyclones Lightning AirportsFAQ Languages Contact Newsletter About
Weather : Europe Africa North America South America Asia Australia-Oceania Others

surat-thani-th, Surat Thani, Surat Thani International Airport

48551

latitude: , longitude: Thailand, elevation: 09-07N m


METAR: VTSB 261200Z 05007KT 9999 FEW020 30/23 Q1011